Location: Ladrillo (historical)
(32.8195°N, 117.2231°W)
Time: 01:14:24
(UTC+00:00)

Courier 1B - Pass Details

Date: 15 March 2021
Orbit: 963 x 1209 km, 28.3° (Epoch: 15 April)

Event Time Altitude Azimuth Distance (km) Brightness Sun altitude
Rises 10:46:56 0° 243° (WSW) 3,988 - -39.8°
Reaches altitude 10° 10:49:55 10° 237° (WSW) 2,993 - -39.2°
Maximum altitude 10:56:52 47° 166° (SSE) 1,391 - -37.9°
Exits shadow 10:59:22 34° 119° (ESE) 1,665 8.8 -37.5°
Drops below altitude 10° 11:03:25 10° 95° (E) 2,820 10.5 -36.7°
Sets 11:06:09 0° 89° (E) 3,739 11.4 -36.2°
